Cloud_Cover
79 58 38 5 4 3 5 62 63 18 0 0 0 0 0 0 0 5 0 70 0 4 40 5 100 100 100 100 100 100 100 100 100 100 100 100 100 100 100 100 100 100 87
16 6 5 5 0 19 40 67 17 1 0 0 0 0 0 0 0 1 5 0 68 28 5 18 100 100 100 100 100 100 100 100 93 100 100 100 100 100 100 100 100 100 78
4 0 3 5 5 4 4 8 2 2 0 0 0 4 0 0 0 0 0 0 0 31 53 34 88 100 100 100 100 100 100 100 100 97 99 100 100 100 100 100 100 100 100
4 5 5 5 5 5 5 5 9 8 12 5 1 17 28 91 14 0 0 0 0 40 26 98 88 100 100 100 100 100 100 100 100 100 74 100 98 100 100 100 100 100 100
5 5 5 5 5 5 5 5 18 65 93 52 13 51 11 5 52 39 6 0 0 10 92 9 100 100 100 100 100 100 100 100 100 100 100 92 50 99 100 100 100 100 98
5 5 9 5 5 46 69 23 99 99 100 100 93 21 43 1 5 2 6 4 0 0 31 56 56 100 100 100 100 100 100 100 100 100 100 100 69 72 100 100 100 100 100
5 5 17 5 10 100 100 98 100 100 100 100 100 100 7 0 0 0 2 5 1 0 0 16 85 67 100 100 100 100 100 100 100 100 100 100 100 43 99 99 100 100 100
5 5 58 7 42 100 100 99 100 100 100 100 100 100 92 4 76 21 100 100 99 42 0 0 52 53 92 100 100 100 100 100 100 100 100 100 100 100 62 90 96 97 100
5 5 32 59 100 100 100 100 100 100 100 100 100 100 100 89 84 0 52 100 100 95 98 94 57 7 95 100 100 100 100 100 100 100 100 100 100 100 100 100 100 100 76
5 5 7 58 95 100 99 95 100 100 100 100 100 100 100 100 100 92 4 39 100 73 56 75 74 32 40 100 100 100 100 100 100 86 100 100 100 100 100 100 100 100 100
5 5 6 65 99 85 99 99 100 100 100 100 100 100 100 100 100 100 100 29 24 100 54 69 92 100 70 96 100 100 100 100 100 100 97 100 100 100 100 100 100 100 100
6 5 32 69 82 86 99 100 100 100 100 100 100 100 100 100 100 100 100 100 98 5 90 100 100 100 65 92 100 100 100 100 100 100 100 100 100 100 100 100 100 100 100
23 27 100 70 82 92 99 90 100 89 88 99 100 100 100 100 100 100 100 100 100 100 82 14 93 100 100 76 100 100 100 100 100 100 100 100 100 100 100 100 100 100 100
6 9 88 33 14 28 82 97 88 88 99 100 87 99 100 100 100 100 100 100 100 100 90 99 0 0 34 100 100 100 100 100 100 100 50 100 100 100 100 100 100 100 100
5 5 55 13 5 98 76 98 98 98 97 100 100 100 99 98 100 100 100 100 100 100 100 40 99 4 88 100 100 100 100 100 100 100 100 100 100 100 100 100 100 100 100
5 5 100 15 79 97 99 95 98 100 99 92 91 100 100 100 78 97 100 100 100 100 100 100 38 0 30 100 100 99 100 100 100 100 100 100 100 100 100 100 100 100 100
5 5 48 33 100 100 100 100 94 90 98 99 90 97 100 100 99 95 100 100 100 100 100 100 96 83 100 100 100 100 100 100 100 100 100 100 100 100 100 100 100 100 100
60 99 100 100 100 100 100 100 100 98 98 100 100 100 96 97 100 100 95 98 100 100 100 100 100 100 100 100 100 100 100 100 100 100 100 100 100 100 100 100 100 100 100
100 100 100 100 100 100 100 100 99 100 100 99 100 100 97 98 100 100 100 99 98 100 100 100 100 100 100 100 100 100 100 100 100 100 100 100 100 100 100 100 100 100 100
100 100 100 100 100 100 100 97 80 92 93 73 93 100 99 77 99 99 100 100 100 98 100 100 100 100 100 100 100 100 100 100 100 100 100 100 100 100 100 100 100 100 100
100 100 100 100 100 100 100 99 34 28 100 41 5 49 100 53 100 100 100 100 100 100 100 100 100 100 100 100 100 100 100 100 100 100 100 100 100 100 100 100 100 100 100
100 100 100 70 66 59 93 90 26 19 47 100 5 5 27 39 5 60 100 100 100 100 100 100 100 100 100 100 100 100 100 100 100 100 100 100 100 100 100 100 100 100 100
97 87 39 5 82 82 100 93 22 5 5 80 82 5 5 5 10 13 99 96 100 100 100 100 100 100 100 100 100 100 100 100 100 100 100 100 100 100 100 100 100 100 100
10 6 5 5 5 100 100 72 12 5 5 9 94 9 5 5 38 95 99 100 100 100 100 100 100 100 100 100 100 100 100 100 100 100 100 100 100 100 100 100 100 100 100
95 98 13 5 5 41 100 80 5 5 5 5 5 94 10 21 42 100 100 100 100 100 100 100 100 100 100 100 100 100 100 100 100 100 100 100 100 100 100 100 100 100 100
19 5 5 5 5 7 100 100 43 5 17 39 5 5 99 74 57 98 100 100 100 100 100 100 100 100 100 100 100 100 100 100 100 100 100 100 100 100 100 100 100 100 100